User: anonymous   Login
Location: Boiro
(42.6475°N, 8.8834°W)
Time: 12:24:11
(UTC+01:00)
Language:

Envisat - Orbit

View from above orbital plane
View from above orbital plane
View from above satellite
View from above satellite

Ground track
Ground track

The orbit data is extracted from the following two-line orbital elements,

1 27386U 02009A   21341.00542648  .00000041  00000-0  27175-4 0  9998
2 27386  98.1640 326.3776 0001319  87.7541 338.8457 14.38058847 35875
Epoch (UTC): 07 December 2021 00:07:48
Eccentricity: 0.0001319
inclination: 98.1640°
perigee height: 764 km
apogee height: 766 km
right ascension of ascending node: 326.3776°
argument of perigee: 87.7541°
revolutions per day: 14.38058847
mean anomaly at epoch: 338.8457°
orbit number at epoch: 3587

The dashed part of the orbit path shows where the satellite is in the earth's shadow,  

DLR